Time,TemperatureF,DewpointF,PressureIn,WindDirection,WindDirectionDegrees,WindSpeedMPH,WindSpeedGustMPH,Humidity,HourlyPrecipIn,Conditions,Clouds,dailyrainin,SolarRadiationWatts/m^2,SoftwareType,DateUTC
2013-06-09 00:00:00,64.6,43.3,29.92,NNE,24,0.0,0.0,46,0.00,,,0.00,0,Wunderground v.1.15,2013-06-09 07:00:00,
2013-06-09 00:10:00,64.0,43.4,29.92,NNE,24,0.0,0.0,47,0.00,,,0.00,0,Wunderground v.1.15,2013-06-09 07:10:00,
2013-06-09 00:15:00,63.6,43.5,29.92,NNE,24,0.0,0.0,48,0.00,,,0.00,0,Wunderground v.1.15,2013-06-09 07:15:00,
2013-06-09 00:20:00,63.1,43.6,29.92,NNE,24,0.0,0.0,49,0.00,,,0.00,0,Wunderground v.1.15,2013-06-09 07:20:00,
2013-06-09 00:30:00,61.7,43.4,29.92,NNE,24,0.0,0.0,51,0.00,,,0.00,0,Wunderground v.1.15,2013-06-09 07:30:00,
2013-06-09 00:35:00,61.1,43.3,29.92,NNE,24,0.0,0.0,52,0.00,,,0.00,0,Wunderground v.1.15,2013-06-09 07:35:00,
2013-06-09 00:40:00,60.5,43.3,29.92,NNE,24,0.0,0.0,53,0.00,,,0.00,0,Wunderground v.1.15,2013-06-09 07:40:00,
2013-06-09 00:49:00,60.5,43.8,29.93,NNE,24,0.0,0.0,54,0.00,,,0.00,0,Wunderground v.1.15,2013-06-09 07:49:00,
2013-06-09 00:54:00,60.8,43.6,29.92,NNE,24,0.0,0.0,53,0.00,,,0.00,0,Wunderground v.1.15,2013-06-09 07:54:00,
2013-06-09 01:00:00,60.9,43.6,29.92,NNE,24,0.0,0.0,53,0.00,,,0.00,0,Wunderground v.1.15,2013-06-09 08:00:00,
2013-06-09 01:05:00,60.5,43.8,29.92,NNE,24,0.0,0.0,54,0.00,,,0.00,0,Wunderground v.1.15,2013-06-09 08:05:00,
2013-06-09 01:15:00,60.0,43.8,29.92,NNE,24,0.0,0.0,55,0.00,,,0.00,0,Wunderground v.1.15,2013-06-09 08:15:00,
2013-06-09 01:20:00,59.7,43.5,29.92,NNE,24,0.0,0.0,55,0.00,,,0.00,0,Wunderground v.1.15,2013-06-09 08:20:00,
2013-06-09 01:25:00,59.1,43.4,29.92,NNE,24,0.0,0.0,56,0.00,,,0.00,0,Wunderground v.1.15,2013-06-09 08:25:00,
2013-06-09 01:30:00,58.9,43.2,29.92,NNE,24,0.0,0.0,56,0.00,,,0.00,0,Wunderground v.1.15,2013-06-09 08:30:00,
2013-06-09 01:40:00,58.4,43.7,29.92,NNE,22,0.0,0.0,58,0.00,,,0.00,0,Wunderground v.1.15,2013-06-09 08:40:00,
2013-06-09 01:45:00,58.2,43.0,29.92,NNE,22,0.0,0.0,57,0.00,,,0.00,0,Wunderground v.1.15,2013-06-09 08:45:00,
2013-06-09 01:50:00,58.2,43.5,29.92,NNE,17,0.0,0.0,58,0.00,,,0.00,0,Wunderground v.1.15,2013-06-09 08:50:00,
2013-06-09 01:55:00,58.5,43.8,29.92,North,11,0.0,0.0,58,0.00,,,0.00,0,Wunderground v.1.15,2013-06-09 08:55:00,
2013-06-09 02:00:00,58.5,43.3,29.92,North,11,0.0,0.0,57,0.00,,,0.00,0,Wunderground v.1.15,2013-06-09 09:00:00,
2013-06-09 02:10:00,58.7,43.5,29.92,North,355,0.0,0.0,57,0.00,,,0.00,0,Wunderground v.1.15,2013-06-09 09:10:00,
2013-06-09 02:15:00,57.9,43.2,29.91,North,355,0.0,0.0,58,0.00,,,0.00,0,Wunderground v.1.15,2013-06-09 09:15:00,
2013-06-09 02:20:00,57.5,43.3,29.91,North,355,0.0,0.0,59,0.00,,,0.00,0,Wunderground v.1.15,2013-06-09 09:20:00,
2013-06-09 02:25:00,57.6,43.4,29.91,North,355,0.0,0.0,59,0.00,,,0.00,0,Wunderground v.1.15,2013-06-09 09:25:00,
2013-06-09 02:30:00,57.2,43.4,29.91,North,355,0.0,0.0,60,0.00,,,0.00,0,Wunderground v.1.15,2013-06-09 09:30:00,
2013-06-09 02:35:00,56.8,43.1,29.91,North,355,0.0,0.0,60,0.00,,,0.00,0,Wunderground v.1.15,2013-06-09 09:35:00,
2013-06-09 02:45:00,56.7,43.8,29.91,North,355,0.0,0.0,62,0.00,,,0.00,0,Wunderground v.1.15,2013-06-09 09:45:00,
2013-06-09 02:50:00,56.6,43.3,29.90,North,355,0.0,0.0,61,0.00,,,0.00,0,Wunderground v.1.15,2013-06-09 09:50:00,
2013-06-09 02:55:00,57.3,44.0,29.91,North,355,0.0,0.0,61,0.00,,,0.00,0,Wunderground v.1.15,2013-06-09 09:55:00,
2013-06-09 03:00:00,58.1,44.3,29.91,North,355,0.0,0.0,60,0.00,,,0.00,0,Wunderground v.1.15,2013-06-09 10:00:00,
2013-06-09 03:10:00,56.8,43.1,29.90,North,355,0.0,0.0,60,0.00,,,0.00,0,Wunderground v.1.15,2013-06-09 10:10:00,
2013-06-09 03:20:00,56.0,42.7,29.90,North,355,0.0,0.0,61,0.00,,,0.00,0,Wunderground v.1.15,2013-06-09 10:20:00,
2013-06-09 03:25:00,55.2,42.4,29.90,North,355,0.0,0.0,62,0.00,,,0.00,0,Wunderground v.1.15,2013-06-09 10:25:00,
2013-06-09 03:30:00,55.1,42.7,29.90,North,355,0.0,0.0,63,0.00,,,0.00,0,Wunderground v.1.15,2013-06-09 10:30:00,
2013-06-09 03:35:00,55.7,42.9,29.90,North,355,0.0,0.0,62,0.00,,,0.00,0,Wunderground v.1.15,2013-06-09 10:35:00,
2013-06-09 03:40:00,55.4,43.0,29.90,North,355,0.0,0.0,63,0.00,,,0.00,0,Wunderground v.1.15,2013-06-09 10:40:00,
2013-06-09 03:45:00,55.5,43.1,29.90,North,355,0.0,0.0,63,0.00,,,0.00,0,Wunderground v.1.15,2013-06-09 10:45:00,
2013-06-09 03:55:00,54.9,42.9,29.89,North,355,0.0,0.0,64,0.00,,,0.00,0,Wunderground v.1.15,2013-06-09 10:55:00,
2013-06-09 04:00:00,55.5,43.1,29.89,North,355,0.0,0.0,63,0.00,,,0.00,0,Wunderground v.1.15,2013-06-09 11:00:00,
2013-06-09 04:10:00,55.7,42.9,29.90,North,355,0.0,0.0,62,0.00,,,0.00,0,Wunderground v.1.15,2013-06-09 11:10:00,
2013-06-09 04:15:00,55.3,42.9,29.90,North,355,0.0,0.0,63,0.00,,,0.00,0,Wunderground v.1.15,2013-06-09 11:15:00,
2013-06-09 04:20:00,55.0,43.0,29.90,NNW,344,0.0,0.0,64,0.00,,,0.00,0,Wunderground v.1.15,2013-06-09 11:20:00,
2013-06-09 04:30:00,54.5,43.0,29.89,NNW,344,0.0,0.0,65,0.00,,,0.00,0,Wunderground v.1.15,2013-06-09 11:30:00,
2013-06-09 04:35:00,54.4,42.9,29.89,NNW,344,0.0,0.0,65,0.00,,,0.00,0,Wunderground v.1.15,2013-06-09 11:35:00,
2013-06-09 04:40:00,54.9,42.9,29.89,NNW,344,0.0,0.0,64,0.00,,,0.00,0,Wunderground v.1.15,2013-06-09 11:40:00,
2013-06-09 04:45:00,54.5,43.0,29.89,NNW,344,0.0,0.0,65,0.00,,,0.00,0,Wunderground v.1.15,2013-06-09 11:45:00,
2013-06-09 04:50:00,54.7,43.2,29.89,NNW,344,0.0,0.0,65,0.00,,,0.00,0,Wunderground v.1.15,2013-06-09 11:50:00,
2013-06-09 05:00:00,54.2,43.1,29.89,NNW,344,0.0,0.0,66,0.00,,,0.00,0,Wunderground v.1.15,2013-06-09 12:00:00,
2013-06-09 05:10:00,54.7,43.6,29.89,NNW,344,0.0,0.0,66,0.00,,,0.00,0,Wunderground v.1.15,2013-06-09 12:10:00,
2013-06-09 05:15:00,54.7,43.2,29.89,NNW,344,0.0,0.0,65,0.00,,,0.00,0,Wunderground v.1.15,2013-06-09 12:15:00,
2013-06-09 05:20:00,54.1,43.0,29.90,NNW,344,0.0,0.0,66,0.00,,,0.00,5,Wunderground v.1.15,2013-06-09 12:20:00,
2013-06-09 05:25:00,54.7,43.2,29.89,NNW,344,0.0,0.0,65,0.00,,,0.00,7,Wunderground v.1.15,2013-06-09 12:25:00,
2013-06-09 05:35:00,53.7,42.6,29.90,NNW,344,0.0,0.0,66,0.00,,,0.00,11,Wunderground v.1.15,2013-06-09 12:35:00,
2013-06-09 05:40:00,53.4,42.3,29.90,NNW,344,0.0,0.0,66,0.00,,,0.00,12,Wunderground v.1.15,2013-06-09 12:40:00,
2013-06-09 05:45:00,53.7,43.4,29.90,NNW,344,0.0,0.0,68,0.00,,,0.00,16,Wunderground v.1.15,2013-06-09 12:45:00,
2013-06-09 05:50:00,54.5,43.0,29.90,NNW,344,0.0,0.0,65,0.00,,,0.00,19,Wunderground v.1.15,2013-06-09 12:50:00,
2013-06-09 06:00:00,55.4,45.0,29.90,North,9,0.0,0.0,68,0.00,,,0.00,35,Wunderground v.1.15,2013-06-09 13:00:00,
2013-06-09 06:10:00,57.7,45.6,29.90,North,9,0.0,0.0,64,0.00,,,0.00,54,Wunderground v.1.15,2013-06-09 13:10:00,
2013-06-09 06:15:00,58.2,46.1,29.90,North,9,0.0,0.0,64,0.00,,,0.00,69,Wunderground v.1.15,2013-06-09 13:15:00,
2013-06-09 06:20:00,57.3,43.5,29.90,NNW,331,0.0,0.0,60,0.00,,,0.00,81,Wunderground v.1.15,2013-06-09 13:20:00,
2013-06-09 06:25:00,57.3,45.6,29.90,NNW,331,0.0,0.0,65,0.00,,,0.00,95,Wunderground v.1.15,2013-06-09 13:25:00,
2013-06-09 06:30:00,57.8,44.4,29.90,NNW,331,0.0,0.0,61,0.00,,,0.00,109,Wunderground v.1.15,2013-06-09 13:30:00,
2013-06-09 06:35:00,57.1,44.6,29.90,NNW,331,0.0,0.0,63,0.00,,,0.00,127,Wunderground v.1.15,2013-06-09 13:35:00,
2013-06-09 06:45:00,59.3,46.3,29.90,NNW,332,0.0,0.0,62,0.00,,,0.00,162,Wunderground v.1.15,2013-06-09 13:45:00,
2013-06-09 06:50:00,59.4,45.9,29.90,NNW,332,0.0,0.0,61,0.00,,,0.00,179,Wunderground v.1.15,2013-06-09 13:50:00,
2013-06-09 07:00:00,60.4,46.4,29.90,NNW,332,0.0,0.0,60,0.00,,,0.00,214,Wunderground v.1.15,2013-06-09 14:00:00,
2013-06-09 07:10:00,61.6,46.7,29.90,North,5,1.0,1.0,58,0.00,,,0.00,246,Wunderground v.1.15,2013-06-09 14:10:00,
2013-06-09 07:20:00,62.3,46.9,29.89,NNE,14,0.0,0.0,57,0.00,,,0.00,276,Wunderground v.1.15,2013-06-09 14:20:00,
2013-06-09 07:25:00,62.4,47.0,29.89,NNE,17,1.0,1.0,57,0.00,,,0.00,292,Wunderground v.1.15,2013-06-09 14:25:00,
2013-06-09 07:30:00,62.6,47.1,29.90,NNE,18,1.0,1.0,57,0.00,,,0.00,306,Wunderground v.1.15,2013-06-09 14:30:00,
2013-06-09 07:35:00,62.9,47.0,29.90,NNE,23,1.0,7.0,56,0.00,,,0.00,322,Wunderground v.1.15,2013-06-09 14:35:00,
2013-06-09 07:40:00,63.1,47.1,29.90,NNE,27,3.0,3.0,56,0.00,,,0.00,338,Wunderground v.1.15,2013-06-09 14:40:00,
2013-06-09 07:50:00,63.1,47.1,29.90,NNE,26,4.0,4.0,56,0.00,,,0.00,364,Wunderground v.1.15,2013-06-09 14:50:00,
2013-06-09 08:00:00,63.5,47.0,29.89,NNE,22,2.0,2.0,55,0.00,,,0.00,394,Wunderground v.1.15,2013-06-09 15:00:00,
2013-06-09 08:10:00,64.3,47.3,29.89,NNE,27,1.0,1.0,54,0.00,,,0.00,422,Wunderground v.1.15,2013-06-09 15:10:00,
2013-06-09 08:15:00,64.9,47.4,29.89,NNE,25,1.0,1.0,53,0.00,,,0.00,438,Wunderground v.1.15,2013-06-09 15:15:00,
2013-06-09 08:25:00,65.1,47.5,29.89,NNE,24,2.0,2.0,53,0.00,,,0.00,468,Wunderground v.1.15,2013-06-09 15:25:00,
2013-06-09 08:30:00,65.0,47.4,29.89,NNE,22,1.0,1.0,53,0.00,,,0.00,483,Wunderground v.1.15,2013-06-09 15:30:00,
2013-06-09 08:35:00,66.6,47.9,29.89,NNE,28,0.0,1.0,51,0.00,,,0.00,499,Wunderground v.1.15,2013-06-09 15:35:00,
2013-06-09 08:40:00,67.2,47.9,29.89,NNE,28,0.0,0.0,50,0.00,,,0.00,515,Wunderground v.1.15,2013-06-09 15:40:00,
2013-06-09 08:50:00,67.6,48.3,29.88,NNE,24,1.0,1.0,50,0.00,,,0.00,541,Wunderground v.1.15,2013-06-09 15:50:00,
2013-06-09 09:00:00,67.6,47.8,29.88,NNE,22,0.0,0.0,49,0.00,,,0.00,570,Wunderground v.1.15,2013-06-09 16:00:00,
2013-06-09 09:10:00,69.1,48.0,29.88,North,5,1.0,1.0,47,0.00,,,0.00,596,Wunderground v.1.15,2013-06-09 16:10:00,
2013-06-09 09:15:00,69.4,47.7,29.88,North,360,0.0,1.0,46,0.00,,,0.00,610,Wunderground v.1.15,2013-06-09 16:15:00,
2013-06-09 09:20:00,69.2,47.5,29.88,NW,325,0.0,0.0,46,0.00,,,0.00,622,Wunderground v.1.15,2013-06-09 16:20:00,
2013-06-09 09:25:00,68.5,47.5,29.88,NW,304,1.0,1.0,47,0.00,,,0.00,636,Wunderground v.1.15,2013-06-09 16:25:00,
2013-06-09 09:35:00,69.3,47.0,29.88,NW,310,0.0,1.0,45,0.00,,,0.00,663,Wunderground v.1.15,2013-06-09 16:35:00,
2013-06-09 09:40:00,69.5,47.2,29.87,NW,310,0.0,0.0,45,0.00,,,0.00,675,Wunderground v.1.15,2013-06-09 16:40:00,
2013-06-09 09:50:00,70.2,46.6,29.87,WNW,287,1.0,1.0,43,0.00,,,0.00,698,Wunderground v.1.15,2013-06-09 16:50:00,
2013-06-09 09:55:00,70.1,46.6,29.87,West,270,2.0,2.0,43,0.00,,,0.00,708,Wunderground v.1.15,2013-06-09 16:55:00,
2013-06-09 10:00:00,70.7,48.3,29.87,WNW,283,1.0,1.0,45,0.00,,,0.00,719,Wunderground v.1.15,2013-06-09 17:00:00,
2013-06-09 10:10:00,71.3,48.3,29.87,North,5,1.0,5.0,44,0.00,,,0.00,745,Wunderground v.1.15,2013-06-09 17:10:00,
2013-06-09 10:15:00,71.0,49.2,29.86,North,9,2.0,5.0,46,0.00,,,0.00,759,Wunderground v.1.15,2013-06-09 17:15:00,
2013-06-09 10:20:00,70.9,48.5,29.86,North,355,3.0,4.0,45,0.00,,,0.00,768,Wunderground v.1.15,2013-06-09 17:20:00,
2013-06-09 10:25:00,71.3,49.4,29.86,North,355,3.0,4.0,46,0.00,,,0.00,779,Wunderground v.1.15,2013-06-09 17:25:00,
2013-06-09 10:30:00,72.0,48.9,29.86,North,5,2.0,2.0,44,0.00,,,0.00,788,Wunderground v.1.15,2013-06-09 17:30:00,
2013-06-09 10:40:00,72.5,48.1,29.86,NNE,13,3.0,3.0,42,0.00,,,0.00,807,Wunderground v.1.15,2013-06-09 17:40:00,
2013-06-09 10:50:00,71.7,48.0,29.85,North,360,5.0,6.0,43,0.00,,,0.00,831,Wunderground v.1.15,2013-06-09 17:50:00,
2013-06-09 10:55:00,72.2,48.5,29.86,NNW,347,6.0,7.0,43,0.00,,,0.00,837,Wunderground v.1.15,2013-06-09 17:55:00,
2013-06-09 11:00:00,72.1,47.7,29.86,North,11,6.0,6.0,42,0.00,,,0.00,846,Wunderground v.1.15,2013-06-09 18:00:00,
2013-06-09 11:10:00,72.6,48.2,29.85,NNE,31,6.0,7.0,42,0.00,,,0.00,861,Wunderground v.1.15,2013-06-09 18:10:00,
2013-06-09 11:15:00,73.0,47.9,29.85,NE,56,6.0,12.0,41,0.00,,,0.00,872,Wunderground v.1.15,2013-06-09 18:15:00,
2013-06-09 11:20:00,73.3,46.8,29.85,NE,34,6.0,7.0,39,0.00,,,0.00,882,Wunderground v.1.15,2013-06-09 18:20:00,
2013-06-09 11:25:00,73.3,47.5,29.85,NW,309,6.0,7.0,40,0.00,,,0.00,891,Wunderground v.1.15,2013-06-09 18:25:00,
2013-06-09 11:35:00,74.5,46.5,29.85,North,5,4.0,9.0,37,0.00,,,0.00,904,Wunderground v.1.15,2013-06-09 18:35:00,
2013-06-09 11:40:00,74.1,46.2,29.85,NNE,23,5.0,8.0,37,0.00,,,0.00,909,Wunderground v.1.15,2013-06-09 18:40:00,
2013-06-09 11:50:00,74.9,44.6,29.85,North,355,6.0,9.0,34,0.00,,,0.00,919,Wunderground v.1.15,2013-06-09 18:50:00,
2013-06-09 11:55:00,74.7,43.7,29.85,NNE,27,7.0,9.0,33,0.00,,,0.00,926,Wunderground v.1.15,2013-06-09 18:55:00,
2013-06-09 12:00:00,74.7,45.2,29.84,NE,44,6.0,7.0,35,0.00,,,0.00,932,Wunderground v.1.15,2013-06-09 19:00:00,
2013-06-09 12:10:00,75.1,44.8,29.84,NNE,32,5.0,5.0,34,0.00,,,0.00,937,Wunderground v.1.15,2013-06-09 19:10:00,
2013-06-09 12:15:00,76.0,44.0,29.84,NE,39,4.0,5.0,32,0.00,,,0.00,940,Wunderground v.1.15,2013-06-09 19:15:00,
2013-06-09 12:25:00,76.4,44.4,29.84,NNE,23,4.0,8.0,32,0.00,,,0.00,951,Wunderground v.1.15,2013-06-09 19:25:00,
2013-06-09 12:30:00,76.4,42.7,29.84,NE,44,6.0,9.0,30,0.00,,,0.00,954,Wunderground v.1.15,2013-06-09 19:30:00,
2013-06-09 12:40:00,76.9,44.0,29.83,NNE,33,7.0,7.0,31,0.00,,,0.00,958,Wunderground v.1.15,2013-06-09 19:40:00,
2013-06-09 12:45:00,77.2,43.4,29.83,NNE,27,6.0,7.0,30,0.00,,,0.00,962,Wunderground v.1.15,2013-06-09 19:45:00,
2013-06-09 12:50:00,77.5,40.9,29.83,NNE,12,4.0,7.0,27,0.00,,,0.00,965,Wunderground v.1.15,2013-06-09 19:50:00,
2013-06-09 13:00:00,77.4,42.6,29.83,NNE,26,8.0,9.0,29,0.00,,,0.00,967,Wunderground v.1.15,2013-06-09 20:00:00,
2013-06-09 13:10:00,78.2,41.5,29.82,North,10,4.0,9.0,27,0.00,,,0.00,970,Wunderground v.1.15,2013-06-09 20:10:00,
2013-06-09 13:20:00,78.4,41.6,29.82,NNW,336,7.0,7.0,27,0.00,,,0.00,970,Wunderground v.1.15,2013-06-09 20:20:00,
2013-06-09 13:25:00,78.0,42.2,29.82,NNE,23,6.0,7.0,28,0.00,,,0.00,965,Wunderground v.1.15,2013-06-09 20:25:00,
2013-06-09 13:35:00,78.9,43.0,29.81,NE,51,8.0,8.0,28,0.00,,,0.00,965,Wunderground v.1.15,2013-06-09 20:35:00,
2013-06-09 13:40:00,79.2,41.3,29.81,NNE,17,7.0,14.0,26,0.00,,,0.00,960,Wunderground v.1.15,2013-06-09 20:40:00,
2013-06-09 13:45:00,79.3,42.4,29.81,NNE,30,7.0,14.0,27,0.00,,,0.00,960,Wunderground v.1.15,2013-06-09 20:45:00,
2013-06-09 13:50:00,79.2,43.3,29.81,NNE,21,8.0,8.0,28,0.00,,,0.00,954,Wunderground v.1.15,2013-06-09 20:50:00,
2013-06-09 13:55:00,79.5,41.6,29.80,North,360,8.0,10.0,26,0.00,,,0.00,954,Wunderground v.1.15,2013-06-09 20:55:00,
2013-06-09 14:00:00,79.4,42.5,29.80,NNE,22,7.0,10.0,27,0.00,,,0.00,951,Wunderground v.1.15,2013-06-09 21:00:00,
2013-06-09 14:10:00,79.7,42.8,29.80,NNE,17,7.0,7.0,27,0.00,,,0.00,942,Wunderground v.1.15,2013-06-09 21:10:00,
2013-06-09 14:20:00,79.7,41.8,29.80,NNW,335,7.0,10.0,26,0.00,,,0.00,937,Wunderground v.1.15,2013-06-09 21:20:00,
2013-06-09 14:25:00,79.2,41.3,29.80,NNE,27,8.0,10.0,26,0.00,,,0.00,933,Wunderground v.1.15,2013-06-09 21:25:00,
2013-06-09 14:30:00,80.1,43.1,29.80,NNE,24,8.0,10.0,27,0.00,,,0.00,930,Wunderground v.1.15,2013-06-09 21:30:00,
2013-06-09 14:40:00,79.3,41.4,29.80,NNW,348,6.0,6.0,26,0.00,,,0.00,919,Wunderground v.1.15,2013-06-09 21:40:00,
2013-06-09 14:45:00,80.1,42.1,29.80,NNW,347,5.0,9.0,26,0.00,,,0.00,911,Wunderground v.1.15,2013-06-09 21:45:00,
2013-06-09 14:50:00,80.7,42.6,29.79,NW,324,6.0,10.0,26,0.00,,,0.00,902,Wunderground v.1.15,2013-06-09 21:50:00,
2013-06-09 14:55:00,80.5,42.4,29.79,NNW,347,6.0,10.0,26,0.00,,,0.00,898,Wunderground v.1.15,2013-06-09 21:55:00,
2013-06-09 15:00:00,80.1,41.1,29.79,West,269,6.0,6.0,25,0.00,,,0.00,889,Wunderground v.1.15,2013-06-09 22:00:00,
2013-06-09 15:10:00,80.3,41.3,29.79,North,11,7.0,7.0,25,0.00,,,0.00,875,Wunderground v.1.15,2013-06-09 22:10:00,
2013-06-09 15:20:00,80.3,41.3,29.79,NNW,340,7.0,7.0,25,0.00,,,0.00,858,Wunderground v.1.15,2013-06-09 22:20:00,
2013-06-09 15:25:00,80.7,39.4,29.79,North,9,7.0,7.0,23,0.00,,,0.00,854,Wunderground v.1.15,2013-06-09 22:25:00,
2013-06-09 15:30:00,80.4,38.1,29.79,NNE,12,9.0,9.0,22,0.00,,,0.00,844,Wunderground v.1.15,2013-06-09 22:30:00,
2013-06-09 15:35:00,81.6,39.1,29.79,NNE,22,7.0,9.0,22,0.00,,,0.00,837,Wunderground v.1.15,2013-06-09 22:35:00,
2013-06-09 15:40:00,81.7,36.7,29.79,NNE,12,6.0,8.0,20,0.00,,,0.00,826,Wunderground v.1.15,2013-06-09 22:40:00,
2013-06-09 15:45:00,80.9,36.1,29.79,NW,318,8.0,8.0,20,0.00,,,0.00,819,Wunderground v.1.15,2013-06-09 22:45:00,
2013-06-09 15:50:00,80.8,37.2,29.78,North,11,8.0,11.0,21,0.00,,,0.00,805,Wunderground v.1.15,2013-06-09 22:50:00,
2013-06-09 15:55:00,81.3,37.6,29.79,NNW,333,9.0,14.0,21,0.00,,,0.00,798,Wunderground v.1.15,2013-06-09 22:55:00,
2013-06-09 16:00:00,80.9,36.1,29.79,NNW,343,10.0,10.0,20,0.00,,,0.00,789,Wunderground v.1.15,2013-06-09 23:00:00,
2013-06-09 16:10:00,80.7,35.9,29.78,NNW,344,9.0,9.0,20,0.00,,,0.00,770,Wunderground v.1.15,2013-06-09 23:10:00,
2013-06-09 16:15:00,80.3,35.6,29.78,NNW,344,9.0,10.0,20,0.00,,,0.00,759,Wunderground v.1.15,2013-06-09 23:15:00,
2013-06-09 16:25:00,80.1,35.4,29.78,North,360,10.0,10.0,20,0.00,,,0.00,733,Wunderground v.1.15,2013-06-09 23:25:00,
2013-06-09 16:30:00,80.1,35.4,29.78,NNE,15,10.0,10.0,20,0.00,,,0.00,722,Wunderground v.1.15,2013-06-09 23:30:00,
2013-06-09 16:35:00,80.3,36.8,29.78,NNE,26,8.0,14.0,21,0.00,,,0.00,710,Wunderground v.1.15,2013-06-09 23:35:00,
2013-06-09 16:40:00,79.9,35.2,29.78,NNW,344,8.0,8.0,20,0.00,,,0.00,698,Wunderground v.1.15,2013-06-09 23:40:00,
2013-06-09 16:45:00,79.5,36.1,29.78,NNE,17,10.0,10.0,21,0.00,,,0.00,687,Wunderground v.1.15,2013-06-09 23:45:00,
2013-06-09 16:55:00,79.4,38.4,29.78,NNE,32,11.0,11.0,23,0.00,,,0.00,657,Wunderground v.1.15,2013-06-09 23:55:00,
2013-06-09 17:00:00,78.9,36.8,29.78,NNW,346,11.0,11.0,22,0.00,,,0.00,645,Wunderground v.1.15,2013-06-10 00:00:00,
2013-06-09 17:10:00,78.5,37.6,29.78,North,5,10.0,10.0,23,0.00,,,0.00,619,Wunderground v.1.15,2013-06-10 00:10:00,
2013-06-09 17:15:00,77.9,37.1,29.78,North,5,11.0,11.0,23,0.00,,,0.00,605,Wunderground v.1.15,2013-06-10 00:15:00,
2013-06-09 17:20:00,78.4,36.4,29.78,NNE,32,11.0,11.0,22,0.00,,,0.00,592,Wunderground v.1.15,2013-06-10 00:20:00,
2013-06-09 17:30:00,78.1,37.3,29.77,North,360,11.0,11.0,23,0.00,,,0.00,564,Wunderground v.1.15,2013-06-10 00:30:00,
2013-06-09 17:35:00,77.9,38.2,29.77,NNE,17,11.0,12.0,24,0.00,,,0.00,550,Wunderground v.1.15,2013-06-10 00:35:00,
2013-06-09 17:40:00,77.8,38.1,29.77,NNE,13,12.0,12.0,24,0.00,,,0.00,536,Wunderground v.1.15,2013-06-10 00:40:00,
2013-06-09 17:45:00,77.8,38.1,29.77,North,5,11.0,12.0,24,0.00,,,0.00,519,Wunderground v.1.15,2013-06-10 00:45:00,
2013-06-09 17:50:00,77.6,37.9,29.77,North,5,10.0,13.0,24,0.00,,,0.00,504,Wunderground v.1.15,2013-06-10 00:50:00,
2013-06-09 17:55:00,77.3,37.7,29.77,North,360,11.0,13.0,24,0.00,,,0.00,494,Wunderground v.1.15,2013-06-10 00:55:00,
2013-06-09 18:00:00,77.3,37.7,29.77,NNE,16,10.0,10.0,24,0.00,,,0.00,475,Wunderground v.1.15,2013-06-10 01:00:00,
2013-06-09 18:10:00,76.8,37.3,29.77,North,360,11.0,11.0,24,0.00,,,0.00,448,Wunderground v.1.15,2013-06-10 01:10:00,
2013-06-09 18:15:00,76.6,37.1,29.77,NNE,26,11.0,15.0,24,0.00,,,0.00,434,Wunderground v.1.15,2013-06-10 01:15:00,
2013-06-09 18:20:00,76.5,38.0,29.77,North,5,9.0,10.0,25,0.00,,,0.00,420,Wunderground v.1.15,2013-06-10 01:20:00,
2013-06-09 18:25:00,76.7,37.2,29.77,North,350,9.0,10.0,24,0.00,,,0.00,406,Wunderground v.1.15,2013-06-10 01:25:00,
2013-06-09 18:30:00,76.2,36.8,29.77,NNE,28,10.0,10.0,24,0.00,,,0.00,392,Wunderground v.1.15,2013-06-10 01:30:00,
2013-06-09 18:40:00,75.6,37.3,29.77,North,351,11.0,11.0,25,0.00,,,0.00,353,Wunderground v.1.15,2013-06-10 01:40:00,
2013-06-09 18:45:00,75.2,36.9,29.77,NNE,14,11.0,12.0,25,0.00,,,0.00,346,Wunderground v.1.15,2013-06-10 01:45:00,
2013-06-09 18:50:00,74.8,36.6,29.77,NNW,337,11.0,15.0,25,0.00,,,0.00,330,Wunderground v.1.15,2013-06-10 01:50:00,
2013-06-09 18:55:00,74.8,38.6,29.77,North,9,11.0,15.0,27,0.00,,,0.00,315,Wunderground v.1.15,2013-06-10 01:55:00,
2013-06-09 19:05:00,73.9,37.8,29.77,North,5,10.0,16.0,27,0.00,,,0.00,287,Wunderground v.1.15,2013-06-10 02:05:00,
2013-06-09 19:15:00,72.8,38.7,29.77,North,5,11.0,13.0,29,0.00,,,0.00,257,Wunderground v.1.15,2013-06-10 02:15:00,
2013-06-09 19:20:00,72.5,38.4,29.78,North,360,9.0,10.0,29,0.00,,,0.00,239,Wunderground v.1.15,2013-06-10 02:20:00,
2013-06-09 19:25:00,72.2,39.0,29.78,NNE,18,8.0,10.0,30,0.00,,,0.00,221,Wunderground v.1.15,2013-06-10 02:25:00,
2013-06-09 19:30:00,71.7,38.6,29.78,North,350,8.0,8.0,30,0.00,,,0.00,202,Wunderground v.1.15,2013-06-10 02:30:00,
2013-06-09 19:35:00,71.4,39.2,29.78,NNE,22,7.0,8.0,31,0.00,,,0.00,186,Wunderground v.1.15,2013-06-10 02:35:00,
2013-06-09 19:45:00,70.8,39.5,29.78,NNE,13,7.0,9.0,32,0.00,,,0.00,149,Wunderground v.1.15,2013-06-10 02:45:00,
2013-06-09 19:50:00,70.6,39.3,29.78,North,360,6.0,6.0,32,0.00,,,0.00,132,Wunderground v.1.15,2013-06-10 02:50:00,
2013-06-09 19:55:00,70.1,38.9,29.79,NNW,345,6.0,6.0,32,0.00,,,0.00,113,Wunderground v.1.15,2013-06-10 02:55:00,
2013-06-09 20:05:00,69.4,38.2,29.78,North,5,6.0,10.0,32,0.00,,,0.00,84,Wunderground v.1.15,2013-06-10 03:05:00,
2013-06-09 20:10:00,68.9,38.6,29.78,North,355,8.0,9.0,33,0.00,,,0.00,70,Wunderground v.1.15,2013-06-10 03:10:00,
2013-06-09 20:20:00,68.0,38.6,29.79,NE,34,7.0,7.0,34,0.00,,,0.00,44,Wunderground v.1.15,2013-06-10 03:20:00,
2013-06-09 20:25:00,67.6,38.2,29.79,NNE,15,6.0,9.0,34,0.00,,,0.00,33,Wunderground v.1.15,2013-06-10 03:25:00,
2013-06-09 20:30:00,67.3,38.7,29.79,NNE,29,6.0,6.0,35,0.00,,,0.00,23,Wunderground v.1.15,2013-06-10 03:30:00,
2013-06-09 20:35:00,67.0,38.4,29.79,NNE,20,5.0,6.0,35,0.00,,,0.00,11,Wunderground v.1.15,2013-06-10 03:35:00,
2013-06-09 20:40:00,66.4,37.2,29.79,North,5,6.0,6.0,34,0.00,,,0.00,9,Wunderground v.1.15,2013-06-10 03:40:00,
2013-06-09 20:45:00,65.9,37.5,29.79,NNE,27,7.0,7.0,35,0.00,,,0.00,7,Wunderground v.1.15,2013-06-10 03:45:00,
2013-06-09 20:55:00,65.4,37.0,29.80,NNE,13,3.0,5.0,35,0.00,,,0.00,0,Wunderground v.1.15,2013-06-10 03:55:00,
2013-06-09 21:05:00,64.4,36.8,29.80,NNE,17,5.0,7.0,36,0.00,,,0.00,0,Wunderground v.1.15,2013-06-10 04:05:00,
2013-06-09 21:10:00,64.0,37.2,29.81,NNE,24,4.0,4.0,37,0.00,,,0.00,0,Wunderground v.1.15,2013-06-10 04:10:00,
2013-06-09 21:15:00,63.8,37.0,29.81,NNE,19,2.0,4.0,37,0.00,,,0.00,0,Wunderground v.1.15,2013-06-10 04:15:00,
2013-06-09 21:20:00,63.4,36.7,29.81,NE,36,1.0,1.0,37,0.00,,,0.00,0,Wunderground v.1.15,2013-06-10 04:20:00,
2013-06-09 21:25:00,63.1,36.4,29.81,NNE,14,1.0,10.0,37,0.00,,,0.00,0,Wunderground v.1.15,2013-06-10 04:25:00,
2013-06-09 21:30:00,62.9,36.2,29.82,NE,36,1.0,1.0,37,0.00,,,0.00,0,Wunderground v.1.15,2013-06-10 04:30:00,
2013-06-09 21:35:00,62.7,36.0,29.82,NNE,19,1.0,1.0,37,0.00,,,0.00,0,Wunderground v.1.15,2013-06-10 04:35:00,
2013-06-09 21:40:00,62.6,36.6,29.82,NNE,19,0.0,0.0,38,0.00,,,0.00,0,Wunderground v.1.15,2013-06-10 04:40:00,
2013-06-09 21:45:00,62.3,35.7,29.82,NE,55,0.0,4.0,37,0.00,,,0.00,0,Wunderground v.1.15,2013-06-10 04:45:00,
2013-06-09 21:55:00,61.7,35.8,29.83,NNE,26,5.0,5.0,38,0.00,,,0.00,0,Wunderground v.1.15,2013-06-10 04:55:00,
2013-06-09 22:00:00,61.5,35.6,29.83,NNE,21,4.0,4.0,38,0.00,,,0.00,0,Wunderground v.1.15,2013-06-10 05:00:00,
2013-06-09 22:10:00,60.7,35.6,29.83,NE,46,5.0,8.0,39,0.00,,,0.00,0,Wunderground v.1.15,2013-06-10 05:10:00,
2013-06-09 22:15:00,60.3,35.9,29.83,NNE,25,7.0,8.0,40,0.00,,,0.00,0,Wunderground v.1.15,2013-06-10 05:15:00,
2013-06-09 22:20:00,59.9,35.5,29.84,NNE,28,8.0,8.0,40,0.00,,,0.00,0,Wunderground v.1.15,2013-06-10 05:20:00,
2013-06-09 22:25:00,59.6,35.2,29.84,NNE,19,7.0,8.0,40,0.00,,,0.00,0,Wunderground v.1.15,2013-06-10 05:25:00,
2013-06-09 22:35:00,59.0,35.9,29.84,NNE,19,6.0,8.0,42,0.00,,,0.00,0,Wunderground v.1.15,2013-06-10 05:35:00,
2013-06-09 22:45:00,58.4,36.6,29.84,North,355,5.0,6.0,44,0.00,,,0.00,0,Wunderground v.1.15,2013-06-10 05:45:00,
2013-06-09 22:50:00,58.1,36.9,29.84,North,5,3.0,3.0,45,0.00,,,0.00,0,Wunderground v.1.15,2013-06-10 05:50:00,
2013-06-09 22:55:00,57.9,36.7,29.84,North,5,1.0,3.0,45,0.00,,,0.00,0,Wunderground v.1.15,2013-06-10 05:55:00,
2013-06-09 23:00:00,57.7,36.5,29.85,North,351,1.0,4.0,45,0.00,,,0.00,0,Wunderground v.1.15,2013-06-10 06:00:00,
2013-06-09 23:10:00,57.5,36.9,29.84,North,355,3.0,6.0,46,0.00,,,0.00,0,Wunderground v.1.15,2013-06-10 06:10:00,
2013-06-09 23:20:00,57.1,36.5,29.85,NNE,20,2.0,2.0,46,0.00,,,0.00,0,Wunderground v.1.15,2013-06-10 06:20:00,
2013-06-09 23:25:00,56.9,36.9,29.85,North,5,1.0,2.0,47,0.00,,,0.00,0,Wunderground v.1.15,2013-06-10 06:25:00,
2013-06-09 23:30:00,56.6,36.6,29.85,North,355,1.0,1.0,47,0.00,,,0.00,0,Wunderground v.1.15,2013-06-10 06:30:00,
2013-06-09 23:35:00,56.6,36.6,29.85,North,355,2.0,3.0,47,0.00,,,0.00,0,Wunderground v.1.15,2013-06-10 06:35:00,
2013-06-09 23:45:00,56.4,37.5,29.85,North,360,3.0,4.0,49,0.00,,,0.00,0,Wunderground v.1.15,2013-06-10 06:45:00,
2013-06-09 23:50:00,56.1,37.2,29.84,North,355,1.0,2.0,49,0.00,,,0.00,0,Wunderground v.1.15,2013-06-10 06:50:00,